{"data":{"norad_id":52580,"intl_designator":"2022-051AW","name":"STARLINK-3919","alt_names":[],"object_type":"PAYLOAD","status":"ACTIVE","operator":null,"country":"US","launch_date":"2022-05-13","launch_site_code":"AFWTR","launch_vehicle":null,"mission":null,"orbit_class":"UNKNOWN","rcs_meters":null,"size_class":null,"mass_kg":null,"dimensions":null,"purposes":["comms"],"wikipedia_slug":null,"has_3d_model":false,"image_url":null,"decayed_at":null,"tle_current":{"epoch":"2026-09-20T04:38:38.920128Z","epoch_age_seconds":89796,"freshness":"FRESH","line1":"1 52580U 22051AW  26263.19350602  .00000322  00000+0  22146-4 0  9990","line2":"2 52580  53.1610 335.2572 0001096  88.2660 271.8467 15.31695026240819","mean_motion":15.31695026,"eccentricity":0.0001096,"inclination_deg":53.161,"raan_deg":335.2572,"arg_perigee_deg":88.266,"mean_anomaly_deg":271.8467,"bstar":2.2146e-5,"rev_number":24081,"period_min":94.013493257893,"perigee_km":470.0041839572,"apogee_km":471.50546104469,"semimajor_km":6848.8918225009,"source":"CELESTRAK","updated_at":"2026-09-20T09:00:40.065475Z"}}}